Location: Mahannah Oil Field
(37.4664°N, 96.6003°W)
Time: 11:35:36
(UTC+00:00)

Altair - Pass Details

Date: 30 January 2021
Orbit: 1501 x 1682 km, 47.2° (Epoch: 24 February)

Event Time Altitude Azimuth Distance (km) Brightness Sun altitude
Exits shadow 10:34:38 71° 320° (NW) 1,737 7.5 -35.2°
Maximum altitude 10:34:58 72° 334° (NNW) 1,735 7.5 -35.1°
Drops below altitude 10° 10:45:08 10° 58° (ENE) 3,947 10.3 -33.1°
Sets 10:48:22 0° 61° (ENE) 4,939 11.0 -32.5°
